This is the latest recevied weather packets stored in our database for station/object KC3ELT-10. If no packets are shown the sender has not sent any weather packets the latest 10 day(s).
| Time | Temp. | Humidity | Pressure | Rain* | Wind** | Luminosity | Snow |
|---|---|---|---|---|---|---|---|
| 1777310279 | 18.33° C | 45% | 1018.3 hPa | 0 mm | 0 m/s | - | - |
| 1777309978 | 18.33° C | 45% | 1018.5 hPa | 0 mm | 2.24 m/s, 68° | - | - |
| 1777309678 | 18.33° C | 45% | 1018.5 hPa | 0 mm | 0.45 m/s, 91° | - | - |
| 1777309378 | 18.33° C | 44% | 1018.5 hPa | 0 mm | 4.02 m/s, 143° | - | - |
| 1777309078 | 18.33° C | 44% | 1018.4 hPa | 0 mm | 0.89 m/s, 112° | - | - |
| 1777308778 | 17.78° C | 49% | 1018.4 hPa | 0 mm | 0.89 m/s, 0° | - | - |
| 1777308478 | 17.78° C | 46% | 1018.4 hPa | 0 mm | 0 m/s | - | - |
| 1777308178 | 17.78° C | 45% | 1018.8 hPa | 0 mm | 0.89 m/s, 181° | - | - |
| 1777307878 | 17.78° C | 51% | 1018.8 hPa | 0 mm | 0.45 m/s, 264° | - | - |
| 1777307578 | 17.22° C | 50% | 1018.8 hPa | 0 mm | 1.34 m/s, 130° | - | - |
| 1777307278 | 17.22° C | 47% | 1018.7 hPa | 0 mm | 0.89 m/s, 146° | - | - |
| 1777306978 | 17.22° C | 47% | 1018.7 hPa | 0 mm | 0 m/s | - | - |
| 1777306678 | 17.78° C | 47% | 1018.7 hPa | 0 mm | 0 m/s | - | - |
| 1777306378 | 17.78° C | 50% | 1018.7 hPa | 0 mm | 1.34 m/s, 66° | - | - |
| 1777306078 | 17.22° C | 52% | 1018.7 hPa | 0 mm | 1.34 m/s, 147° | - | - |
| 1777305778 | 17.22° C | 49% | 1018.7 hPa | 0 mm | 0.89 m/s, 4° | - | - |
| 1777305478 | 17.22° C | 52% | 1018.9 hPa | 0 mm | 0 m/s | - | - |
| 1777305178 | 16.67° C | 51% | 1018.9 hPa | 0 mm | 0.89 m/s, 53° | - | - |
| 1777304878 | 16.11° C | 52% | 1018.9 hPa | 0 mm | 1.34 m/s, 49° | - | - |
| 1777304578 | 16.11° C | 53% | 1018.9 hPa | 0 mm | 1.79 m/s, 104° | - | - |
| 1777304278 | 16.11° C | 57% | 1018.9 hPa | 0 mm | 0.45 m/s, 148° | - | - |
| 1777303978 | 16.11° C | 52% | 1018.9 hPa | 0 mm | 0 m/s | - | - |
| 1777303678 | 16.11° C | 53% | 1018.9 hPa | 0 mm | 0.45 m/s, 34° | - | - |
| 1777303378 | 16.11° C | 57% | 1018.9 hPa | 0 mm | 0.45 m/s, 87° | - | - |
| 1777303139 | 16.11° C | 61% | 1018.9 hPa | 0 mm | 0 m/s | - | - |
* Rain latest hour (hover to see other rain measurements)
** Current wind speed in m/s (hover to see current wind gust speed)